Starlink 32041

operational
NORAD ID: 60202 Int'l Des: 2024-124 Owner: SPXS Country: US Constellation: starlink
LEOCIRCULAR

About Starlink 32041

Description loading...

Live Position

Loading 3D Globe...

Upcoming Passes

Altitude History

Altitude vs Time

uPlot chart will show altitude changes over time

Two-Line Element Set

1 60202U 24124V 25351.25056600 -.00000284 00000-0 25385-5 0 9996
2 60202 53.1620 345.4315 0001369 91.6153 268.5004 15.30194202 82875
Epoch: Dec 17, 2025 • Age: 8 hours

Current Status

Altitude 480.7 km
Velocity 7.63 km/s
Sub-Earth Point 52.75°N, 144.85°E
Launch Date Jul 3, 2024
Age 1.4 years
Type internet

Technical Details

Classification Payload
Mass 730.00 kg
Dry Mass 700.00 kg
Total Mass 730.00 kg
Length 0.30 m
Diameter 4.10 m
Span 29.00 m
Shape Box + pan
Manufacturer SPXS
Bus Type Starlink V2M
Phase Status In Orbit
Owner/State SPXS/US

Large Constellations

Loading constellations...